This demonstration page uses our WeatherBlox Daily Observations layout. Learn more.

Left ArrowRight Arrow

31.31129, -92.44514

Hourly Observations for July 16, 2022

Temp ( °F °C ) Dew Point ( °F °C ) Humidity (%) Winds ( mph kmh ) Pressure ( in mb ) Visibility ( mi km ) Precip ( " mm )
12:53 am 00:53 Clear 79 26.1 73 22.8 82 82 Calm 30.03 1017 10 16 0.00 0.00
1:53 am 01:53 Clear 77 25 73 22.8 88 88 Calm 30.02 1017 10 16 0.00 0.00
2:53 am 02:53 Clear 75 23.9 72 22.2 90 90 Calm 30.01 1016 10 16 0.00 0.00
3:53 am 03:53 Clear 76 24.4 72 22.2 88 88 Calm 30.02 1017 10 16 0.00 0.00
4:53 am 04:53 Clear 75 23.9 72 22.2 90 90 Calm 30.03 1017 10 16 0.00 0.00
5:53 am 05:53 Clear 74 23.3 72 22.2 94 94 Calm 30.04 1017 9 14 0.00 0.00
6:53 am 06:53 Mostly Cloudy 75 23.9 73 22.8 94 94 Calm 30.06 1018 8 13 0.00 0.00
7:53 am 07:53 Sunny 78 25.6 74 23.3 87 87 Calm 30.06 1018 10 16 0.00 0.00
8:53 am 08:53 Sunny 83 28.3 72 22.2 70 70 WNW 7 11 30.07 1018 10 16 0.00 0.00
9:53 am 09:53 Sunny 88 31.1 72 22.2 59 59 VRB 6 9 30.06 1018 10 16 0.00 0.00
10:53 am 10:53 Sunny 90 32.2 70 21.1 52 52 WNW 7 11 30.05 1018 10 16 0.00 0.00
11:53 am 11:53 Sunny 92 33.3 69 20.6 47 47 SSW 8 13 30.04 1017 10 16 0.00 0.00
12:53 pm 12:53 Sunny 95 35 68 20 41 41 VRB 5 7 30.02 1017 10 16 0.00 0.00
1:53 pm 13:53 Sunny 96 35.6 67 19.4 39 39 undefined N/A 30.00 1016 10 16 0.00 0.00
3:53 pm 15:53 Sunny 97 36.1 66 18.9 36 36 Calm 29.95 1014 10 16 0.00 0.00
4:53 pm 16:53 Sunny 98 36.7 67 19.4 36 36 VRB 3 6 29.94 1014 10 16 0.00 0.00
5:53 pm 17:53 Sunny 98 36.7 66 18.9 35 35 WSW 5 7 29.93 1014 10 16 0.00 0.00
6:53 pm 18:53 Sunny 96 35.6 69 20.6 41 41 SW 5 7 29.91 1013 10 16 0.00 0.00
7:53 pm 19:53 Sunny 91 32.8 71 21.7 52 52 S 5 7 29.91 1013 10 16 0.00 0.00
8:53 pm 20:53 Mostly Cloudy 87 30.6 72 22.2 61 61 S 5 7 29.93 1014 10 16 0.00 0.00
9:53 pm 21:53 Clear 84 28.9 73 22.8 70 70 SSE 6 9 29.94 1014 10 16 0.00 0.00
10:53 pm 22:53 Clear 84 28.9 71 21.7 65 65 S 3 6 29.95 1014 10 16 0.00 0.00
11:53 pm 23:53 Clear 81 27.2 72 22.2 74 74 SSE 5 7 29.96 1014 10 16 0.00 0.00

Powered by AerisWeather